Change the Weather History Date:

Wednesday, April 25, 2012

  Actual Average Record
Temperature  
Mean Temperature 70 °F 70 °F  
Max Temperature 84 °F 81 °F 89 °F (1967)
Min Temperature 56 °F 59 °F 42 °F (1910)
Degree Days  
Heating Degree Days 0 1  
Month to date heating degree days 14 49  
Since 1 July heating degree days 1130 1551  
Cooling Degree Days 5 6  
Month to date cooling degree days 127 109  
Year to date cooling degree days 369 198  
Growing Degree Days 20 (Base 50)    
Moisture  
Dew Point 58 °F    
Average Humidity 65    
Maximum Humidity 86    
Minimum Humidity 43    
Precipitation  
Precipitation 0.00 in 0.14 in 2.24 in (1926)
Month to date precipitation 3.27 3.77  
Year to date precipitation 23.00 18.94  
Snow  
Snow 0.00 in - - ()
Month to date snowfall 0.0  
Since 1 July snowfall 0.0  
Snow Depth 0.00 in    
Sea Level Pressure  
Sea Level Pressure 30.00 in    
Wind  
Wind Speed 11 mph (SSW)    
Max Wind Speed 20 mph    
Max Gust Speed 24 mph    
Visibility 10 miles    
Events      
T = Trace of Precipitation, MM = Missing Value Source: NWS Daily Summary

Daily Weather History Graph

Daily Weather History Graph

Search for Another Location

Airport or City:

Trip Planner

Search our weather history database for the weather conditions in past years. The results will help you decide how hot, cold, wet, or windy it might be!

Date:

Astronomy

Apr. 25, 2012 Rise Set
Actual Time 6:26 AM CDT 7:39 PM CDT
Civil Twilight 6:00 AM CDT 8:04 PM CDT
Nautical Twilight 5:31 AM CDT 8:34 PM CDT
Astronomical Twilight 5:00 AM CDT 9:05 PM CDT
Moon 9:21 AM CDT (4/25) 11:36 PM CDT (4/25)
Length of Visible Light 14h 03m
Length of Day
13h 13m
Waxing Crescent, 17% of the Moon is Illuminated
Apr 25
Waxing Crescent
Apr 29
First Quarter
May 5
Full
May 12
Last Quarter
May 20
New

Hourly Weather History & Observations

Time (CDT) Temp. Heat Index Dew Point Humidity Pressure Visibility Wind Dir Wind Speed Gust Speed Precip Events Conditions
12:53 AM 63.0 °F - 50.0 °F 63% 30.01 in 10.0 mi SW 13.8 mph 18.4 mph N/A   Clear
1:53 AM 63.0 °F - 51.1 °F 65% 30.01 in 10.0 mi SW 10.4 mph - N/A   Clear
2:53 AM 60.1 °F - 52.0 °F 75% 29.99 in 10.0 mi South 5.8 mph - N/A   Clear
3:53 AM 60.1 °F - 53.1 °F 78% 29.98 in 10.0 mi South 5.8 mph - N/A   Clear
4:53 AM 59.0 °F - 53.1 °F 81% 29.99 in 10.0 mi South 5.8 mph - N/A   Clear
5:53 AM 57.9 °F - 54.0 °F 87% 30.00 in 10.0 mi South 3.5 mph - N/A   Clear
6:53 AM 57.0 °F - 54.0 °F 89% 30.01 in 7.0 mi Calm Calm - N/A   Clear
7:53 AM 64.9 °F - 57.0 °F 75% 30.03 in 10.0 mi Calm Calm - N/A   Clear
8:53 AM 72.0 °F - 59.0 °F 64% 30.04 in 10.0 mi SW 16.1 mph - N/A   Clear
9:53 AM 73.9 °F - 60.1 °F 62% 30.03 in 10.0 mi SSW 15.0 mph - N/A   Clear
10:53 AM 77.0 °F - 60.1 °F 56% 30.03 in 10.0 mi South 10.4 mph - N/A   Clear
11:53 AM 80.1 °F 80.7 °F 59.0 °F 48% 30.03 in 10.0 mi South 12.7 mph 20.7 mph N/A   Clear
12:53 PM 82.0 °F 82.1 °F 59.0 °F 45% 30.01 in 10.0 mi South 12.7 mph 20.7 mph N/A   Clear
1:53 PM 84.0 °F 83.8 °F 59.0 °F 43% 30.00 in 10.0 mi SW 11.5 mph - N/A   Clear
2:53 PM 84.0 °F 83.8 °F 59.0 °F 43% 29.98 in 10.0 mi South 15.0 mph 19.6 mph N/A   Clear
3:53 PM 84.0 °F 83.8 °F 59.0 °F 43% 29.96 in 10.0 mi South 15.0 mph 21.9 mph N/A   Clear
4:53 PM 82.0 °F 82.0 °F 57.9 °F 44% 29.96 in 10.0 mi South 17.3 mph - N/A   Clear
5:53 PM 80.1 °F 80.9 °F 60.1 °F 50% 29.96 in 10.0 mi SSW 12.7 mph - N/A   Clear
6:53 PM 77.0 °F - 62.1 °F 60% 29.97 in 10.0 mi SSW 16.1 mph - N/A   Clear
7:53 PM 73.0 °F - 63.0 °F 71% 29.97 in 10.0 mi South 17.3 mph 23.0 mph N/A   Clear
8:53 PM 72.0 °F - 63.0 °F 73% 29.98 in 10.0 mi South 15.0 mph - N/A   Partly Cloudy
9:53 PM 71.1 °F - 64.0 °F 78% 29.99 in 10.0 mi South 12.7 mph 20.7 mph N/A   Scattered Clouds
10:53 PM 69.1 °F - 64.9 °F 87% 29.99 in 10.0 mi South 13.8 mph - N/A   Scattered Clouds
11:53 PM 69.1 °F - 64.9 °F 87% 29.99 in 10.0 mi South 9.2 mph - N/A   Clear